Location: Beutels
(47.8767°N, 9.8584°E)
Time: 20:22:15
(UTC+00:00)

Ariane Rocket - Pass Details

Date: 19 May 2025
Orbit: 755 x 764 km, 98.5° (Epoch: 20 June)

Event Time Altitude Azimuth Distance (km) Brightness Sun altitude
Exits shadow 19:36:58 - 120° (ESE) 2,532 5.0 -6.2°
Reaches altitude 10° 19:37:42 10° 116° (ESE) 2,294 4.8 -6.3°
Maximum altitude 19:41:46 25° 62° (ENE) 1,496 4.3 -6.8°
Drops below altitude 10° 19:45:53 10° 8° (N) 2,311 6.0 -7.4°
Sets 19:48:31 0° 356° (N) 3,242 7.0 -7.7°
